Regional Weather Roundup
Issued by NWS Little Rock, AR

Home | Current Version | Previous Version | Graphics & Text | Print | Product List | Glossary On
Versions: 1 2 3 4 5 6 7 8 9 10 11 12 13 14 15 16 17 18 19 20 21 22 23 24 25 26 27 28 29 30 31 32 33 34 35 36 37 38 39 40 41 42 43 44 45 46 47 48 49 50
000
ASUS44 KLZK 191805
RWRLZK

WEATHER ROUNDUP FOR ARKANSAS
NATIONAL WEATHER SERVICE LITTLE ROCK AR
100 PM CDT FRI SEP 19 2014

NOTE: "FAIR" INDICATES FEW OR NO CLOUDS BELOW 12,000 FEET WITH NO
SIGNIFICANT WEATHER AND/OR OBSTRUCTIONS TO VISIBILITY.

ARZ001-003-010-029-191900-
NORTHWEST ARKANSAS

CITY           SKY/WX    TMP DP  RH WIND       PRES   REMARKS
FAYETTEVILLE   SUNNY     78  67  68 VRB3      30.05S
6HR MIN TEMP:  60; 6HR MAX TEMP:  79;

FORT SMITH     PTSUNNY   78  67  68 E8        30.02F
6HR MIN TEMP:  69; 6HR MAX TEMP:  79;

HARRISON       MOSUNNY   73  64  73 VRB5      30.08F
6HR MIN TEMP:  62; 6HR MAX TEMP:  74;

BENTONVILLE    MOSUNNY   79  64  61 S3        30.07S
6HR MIN TEMP:  64; 6HR MAX TEMP:  79;

ROGERS         MOSUNNY   77  66  68 VRB5      30.06F
6HR MIN TEMP:  64; 6HR MAX TEMP:  77;

SILOAM SPGS    PTSUNNY   75  64  69 CALM      30.06F
6HR MIN TEMP:  63; 6HR MAX TEMP:  75;

HIGHFILL       PTSUNNY   78  67  68 CALM      30.05F
6HR MIN TEMP:  62; 6HR MAX TEMP:  78;

SPRINGDALE     MOSUNNY   79  68  69 CALM      30.07F
$$

ARZ004-005-016-191900-
NORTH CENTRAL ARKANSAS

CITY           SKY/WX    TMP DP  RH WIND       PRES   REMARKS
BATESVILLE     MOSUNNY   81  64  57 CALM      30.04F
6HR MIN TEMP:  63; 6HR MAX TEMP:  81;

FLIPPIN        PTSUNNY   75  61  60 S3        30.07S
6HR MIN TEMP:  61; 6HR MAX TEMP:  77;

MTN HOME       MOSUNNY   75  62  64 CALM      30.06S
6HR MIN TEMP:  59; 6HR MAX TEMP:  77;

$$

ARZ040-041-191900-
WEST CENTRAL ARKANSAS

CITY           SKY/WX    TMP DP  RH WIND       PRES   REMARKS
MENA           MOSUNNY   79  70  73 N5        30.05F
MOUNT IDA      MOSUNNY   82  68  62 E3        30.01F HX  85
6HR MIN TEMP:  69; 6HR MAX TEMP:  82;

$$

ARZ009-017-025-026-028-191900-
NORTHEAST ARKANSAS

CITY           SKY/WX    TMP DP  RH WIND       PRES   REMARKS
CORNING          N/A     79  63  57 NE6       30.06F
JONESBORO      SUNNY     81  63  54 VRB6      30.04F
6HR MIN TEMP:  62; 6HR MAX TEMP:  82;

NEWPORT        PTSUNNY   82  66  58 E8        30.05F
6HR MIN TEMP:  64; 6HR MAX TEMP:  82;

WALNUT RIDGE   SUNNY     79  64  61 NE9       30.04F
6HR MIN TEMP:  61; 6HR MAX TEMP:  79;

BLYTHEVILLE    SUNNY     82  65  56 E8        30.05F
6HR MIN TEMP:  59; 6HR MAX TEMP:  83;

$$

ARZ022-023-033-042-044-191900-
CENTRAL ARKANSAS

CITY           SKY/WX    TMP DP  RH WIND       PRES   REMARKS
LITTLE ROCK    MOSUNNY   84  67  56 NE6       30.03F HX  86
6HR MIN TEMP:  67; 6HR MAX TEMP:  84;

N LITTLE ROCK  MOSUNNY   83  71  67 E8        30.03F HX  87
6HR MIN TEMP:  65; 6HR MAX TEMP:  83;

JACKSONVILLE   MOSUNNY   83  69  62 VRB3      30.03S HX  86
6HR MIN TEMP:  65; 6HR MAX TEMP:  83;

SEARCY         MOSUNNY   83  68  60 E6        30.04S HX  86
6HR MIN TEMP:  66; 6HR MAX TEMP:  83;

HOT SPRINGS    MOSUNNY   82  68  62 VRB3      30.03F HX  85
6HR MIN TEMP:  67; 6HR MAX TEMP:  82;

RUSSELLVILLE   MOSUNNY   80  67  64 CALM      30.04S
6HR MIN TEMP:  65; 6HR MAX TEMP:  80;

CLINTON        PTSUNNY   82  68  61 SW5       30.04F HX  85
$$

ARZ036-191900-
EAST ARKANSAS

CITY           SKY/WX    TMP DP  RH WIND       PRES   REMARKS
WEST MEMPHIS   SUNNY     83  69  62 S5        30.02F HX  86
6HR MIN TEMP:  65; 6HR MAX TEMP:  83;

$$

ARZ050-053-066-070-073-191900-
SOUTHWEST ARKANSAS

CITY           SKY/WX    TMP DP  RH WIND       PRES   REMARKS
ARKADELPHIA    FAIR      84  72  67 VRB3      30.02F HX  89
6HR MIN TEMP:  68; 6HR MAX TEMP:  84;

CAMDEN         CLOUDY    77  68  73 SE3       30.02F
TEXARKANA      CLOUDY    74  71  91 VRB5      30.02F
6HR MIN TEMP:  68; 6HR MAX TEMP:  75;

EL DORADO      PTSUNNY   80  70  71 CALM      30.02F
6HR MIN TEMP:  67; 6HR MAX TEMP:  80;

DE QUEEN       SUNNY     80  71  74 VRB3      30.00S
6HR MIN TEMP:  69; 6HR MAX TEMP:  80;

$$

ARZ056-057-069-191900-
SOUTHEAST ARKANSAS

CITY           SKY/WX    TMP DP  RH WIND       PRES   REMARKS
PINE BLUFF     MOSUNNY   83  68  60 SE7       30.03S HX  86
6HR MIN TEMP:  67; 6HR MAX TEMP:  83;

STUTTGART      MOSUNNY   82  70  65 E6        30.03F HX  86
6HR MIN TEMP:  66; 6HR MAX TEMP:  82;

MONTICELLO     PTSUNNY   83  68  60 NE7       30.02S HX  86
6HR MIN TEMP:  68; 6HR MAX TEMP:  83;


$$




USA.gov is the U.S. government's official web portal to all federal, state and local government web resources and services.